Fort Lewis, WA
on Tuesday, December 11, 2012

Tuesday
Previous Day Next Day
Daily Summary
 ActualAverage (KOLM)Record (KOLM)
Temperature
Mean Temperature °F 38°F  
Max Temperature 46°F 44°F 58°F (1958)
Min Temperature 35°F 32°F 10°F (2009)
Degree Days
Heating Degree Days 24 27  
Month to date heating degree days 286  
Since 1 July heating degree days 1731  
Cooling Degree Days 0 0  
Month to date cooling degree days 0  
Year to date cooling degree days 106  
Moisture
Dew Point 39°F   
Average Humidity 94    
Maximum Humidity 100    
Minimum Humidity 76    
Precipitation
Precipitation 0.11 in 0.23 in 2.33 in (1955)
Month to date precipitation 2.90  
Year to date precipitation 45.44  
Wind
Wind Speed 6 mph   
Max Wind Speed 18 mph   
Max Gust Speed 28 mph   
Visibility 7 miles   
Events Fog , Rain   

Key: T is trace of precipitation, MM is missing value
Source: NWS Daily Summary
Time(PST)TemperatureDew PointHumidity Pressure Visibility Wind DirectionWind SpeedGust SpeedPrecipitationEvents Conditions
12:03 AM 37.4°F 37.4°F 100% 30.11 in 1.0 miles SSE 3.5 mph - N/A   Mist
12:05 AM 37.4°F 35.6°F 93% 30.10 in 0.8 miles SSE 2.3 mph - N/A   Mist
12:10 AM 37.4°F 35.6°F 93% 30.10 in 1.0 miles SE 3.5 mph - N/A   Mist
12:15 AM 37.4°F 35.6°F 93% 30.09 in 0.8 miles SE 4.6 mph - N/A   Mist
12:20 AM 35.6°F 35.6°F 100% 30.09 in 0.5 miles SSE 4.6 mph - N/A Fog Fog
12:30 AM 35.6°F 35.6°F 100% 30.07 in 0.2 miles SE 5.8 mph - N/A Fog Fog
12:35 AM 35.6°F 35.6°F 100% 30.07 in 0.2 miles SE 5.8 mph - N/A Fog Fog
12:40 AM 35.6°F 35.6°F 100% 30.07 in 0.5 miles ESE 3.5 mph - N/A Fog Fog
12:45 AM 35.6°F 35.6°F 100% 30.06 in 1.2 miles ESE 4.6 mph - N/A   Mostly Cloudy
12:50 AM 37.4°F 37.4°F 100% 30.05 in 5.0 miles ESE 3.5 mph - N/A   Mostly Cloudy
12:55 AM 37.4°F 37.4°F 100% 30.05 in 10.0 miles SE 3.5 mph - N/A   Overcast
12:58 AM 38.1°F 37.9°F 99% 30.06 in 10.0 miles SE 5.8 mph - N/A   Overcast
1:08 AM 37.4°F 37.4°F 100% 30.03 in 9.0 miles SE 6.9 mph - N/A   Overcast
1:43 AM 37.4°F 37.4°F 100% 30.01 in 1.8 miles SE 4.6 mph - N/A   Overcast
1:48 AM 37.4°F 37.4°F 100% 30.01 in 1.0 miles SE 4.6 mph - N/A   Overcast
1:53 AM 39.2°F 37.4°F 93% 30.00 in 0.8 miles SSE 4.6 mph - N/A   Overcast
1:58 AM 37.4°F 37.4°F 100% 30.03 in 0.5 miles South 3.5 mph - N/A Fog Fog
2:28 AM 37.4°F 37.4°F 100% 29.98 in 0.5 miles East 2.3 mph - N/A Fog Fog
2:33 AM 37.4°F 37.4°F 100% 29.98 in 0.8 miles ESE 2.3 mph - N/A   Scattered Clouds
2:38 AM 37.4°F 37.4°F 100% 29.98 in 1.5 miles SE 1.2 mph - N/A   Mostly Cloudy
2:43 AM 37.4°F 37.4°F 100% 29.97 in 1.5 miles SSE 2.3 mph - N/A   Mostly Cloudy
2:48 AM 37.4°F 37.4°F 100% 29.96 in 1.2 miles SE 2.3 mph - N/A   Mostly Cloudy
2:58 AM 37.4°F 37.2°F 99% 29.97 in 1.5 miles SE 2.3 mph - N/A   Overcast
3:08 AM 35.6°F 35.6°F 100% 29.94 in 2.5 miles SE 3.5 mph - N/A   Mostly Cloudy
3:13 AM 35.6°F 35.6°F 100% 29.95 in 4.0 miles SSE 3.5 mph - N/A   Mostly Cloudy
3:18 AM 35.6°F 35.6°F 100% 29.95 in 5.0 miles SSE 3.5 mph - N/A   Overcast
3:48 AM 39.2°F 39.2°F 100% 29.94 in 10.0 miles SW 11.5 mph - N/A   Mostly Cloudy
3:58 AM 40.3°F 39.9°F 99% 29.96 in 10.0 miles SW 12.7 mph - N/A   Mostly Cloudy
4:08 AM 41.0°F 41.0°F 100% 29.94 in 10.0 miles SW 10.4 mph - N/A   Mostly Cloudy
4:13 AM 41.0°F 41.0°F 100% 29.94 in 10.0 miles SSW 9.2 mph - N/A   Overcast
4:18 AM 41.0°F 41.0°F 100% 29.93 in 10.0 miles SW 9.2 mph - N/A   Overcast
4:28 AM 41.0°F 41.0°F 100% 29.93 in 10.0 miles South 11.5 mph - N/A   Overcast
4:33 AM 41.0°F 41.0°F 100% 29.92 in 10.0 miles South 9.2 mph - N/A   Overcast
4:53 AM 41.0°F 41.0°F 100% 29.90 in 10.0 miles South 8.1 mph - N/A   Overcast
4:58 AM 41.2°F 40.8°F 99% 29.92 in 10.0 miles SSE 6.9 mph - N/A   Overcast
5:03 AM 41.0°F 41.0°F 100% 29.89 in 10.0 miles SE 8.1 mph - N/A   Overcast
5:08 AM 41.0°F 41.0°F 100% 29.89 in 10.0 miles SE 9.2 mph - N/A   Overcast
5:13 AM 41.0°F 41.0°F 100% 29.88 in 10.0 miles SE 8.1 mph - N/A   Overcast
5:58 AM 41.2°F 40.6°F 98% 29.89 in 10.0 miles South 4.6 mph - N/A   Overcast
6:38 AM 41.0°F 41.0°F 100% 29.85 in 10.0 miles SE 5.8 mph - N/A   Overcast
6:58 AM 40.8°F 40.6°F 99% 29.85 in 10.0 miles ESE 6.9 mph - N/A   Overcast
7:58 AM 41.5°F 40.5°F 96% 29.79 in 10.0 miles SE 8.1 mph - N/A   Scattered Clouds
8:58 AM 41.5°F 40.5°F 96% 29.77 in 10.0 miles SE 5.8 mph - N/A   Overcast
9:58 AM 44.1°F 40.8°F 88% 29.74 in 10.0 miles SSE 10.4 mph - N/A   Mostly Cloudy
10:58 AM 44.8°F 40.1°F 84% 29.73 in 10.0 miles South 10.4 mph - N/A   Overcast
11:58 AM 45.9°F 40.1°F 80% 29.66 in 10.0 miles SSE 18.4 mph - N/A   Overcast
12:58 PM 46.4°F 39.7°F 78% 29.64 in 10.0 miles SSE 11.5 mph - N/A   Overcast
1:07 PM 46.4°F 39.2°F 76% 29.61 in 10.0 miles SSE 10.4 mph - N/A   Light Drizzle
1:32 PM 44.6°F 41.0°F 87% 29.60 in 9.0 miles SSE 11.5 mph - N/A   Light Drizzle
1:37 PM 44.6°F 41.0°F 87% 29.60 in 10.0 miles SSE 12.7 mph - N/A Rain Light Rain
1:58 PM 44.2°F 40.6°F 87% 29.60 in 10.0 miles SSE 18.4 mph 24.2 mph 0.07 in Rain Light Rain
2:03 PM 44.6°F 41.0°F 87% 29.58 in 10.0 miles SSE 15.0 mph 24.2 mph N/A Rain Light Rain
2:58 PM 43.2°F 40.8°F 91% 29.57 in 10.0 miles SE 15.0 mph - 0.04 in   Scattered Clouds
3:33 PM 42.8°F 39.2°F 87% 29.55 in 10.0 miles SSE 10.4 mph - N/A   Overcast
3:38 PM 42.8°F 39.2°F 87% 29.54 in 10.0 miles SSE 11.5 mph - N/A   Overcast
3:53 PM 42.8°F 39.2°F 87% 29.55 in 10.0 miles SSE 10.4 mph - N/A   Overcast
3:58 PM 42.8°F 39.6°F 88% 29.57 in 10.0 miles SSE 10.4 mph - 0.00 in   Overcast
4:03 PM 42.8°F 39.2°F 87% 29.55 in 10.0 miles SSE 10.4 mph - N/A   Overcast
4:58 PM 43.0°F 38.8°F 85% 29.58 in 10.0 miles South 16.1 mph 23.0 mph N/A   Overcast
5:58 PM 42.8°F 38.3°F 84% 29.59 in 10.0 miles South 12.7 mph - N/A   Overcast
6:58 PM 42.4°F 38.7°F 86% 29.58 in 10.0 miles South 12.7 mph 27.6 mph N/A   Mostly Cloudy
7:58 PM 42.8°F 39.6°F 88% 29.59 in 10.0 miles South 13.8 mph - N/A   Overcast
8:58 PM 41.7°F 39.6°F 92% 29.61 in 10.0 miles SSE 9.2 mph - N/A   Mostly Cloudy
9:38 PM 42.8°F 39.2°F 87% 29.59 in 10.0 miles South 6.9 mph - N/A   Overcast
9:58 PM 42.3°F 39.9°F 91% 29.61 in 10.0 miles South 8.1 mph - N/A   Overcast
10:53 PM 42.8°F 39.2°F 87% 29.61 in 10.0 miles SSE 10.4 mph - N/A   Overcast
10:58 PM 42.1°F 39.9°F 92% 29.63 in 10.0 miles SSE 10.4 mph - N/A   Overcast
11:58 PM 41.2°F 39.4°F 93% 29.63 in 10.0 miles SSE 9.2 mph - N/A   Partly Cloudy
Moon Phase
Dec. 11 Dec. 13 Dec. 20 Dec. 28 Jan. 04
Sunrise:07:46 AM (PST) Moon Rise:05:44 AM (PST)12/11
Sunset:04:20 PM (PST) Moon Set:03:07 PM (PST)12/11

Copyright © 2014 The Weather Underground, Inc.